EHI
5 6 7 7 7 8 7 6 5 2 0 1 2 2 1 0 0 0 0 1 0 0 0 0 0 0 0 1 2 2 3 2 2 1 0 0 1 1
8 8 9 8 8 8 8 7 6 4 2 2 2 3 3 2 1 1 1 2 1 0 0 0 0 0 0 0 1 1 2 1 1 0 0 0 0 1
9 10 11 11 10 10 9 9 8 6 5 4 4 5 6 5 4 4 3 2 1 0 0 0 0 0 0 0 0 0 0 0 0 0 0 0 0 0
9 10 11 13 14 13 12 11 10 9 8 7 6 7 8 7 7 6 4 2 1 0 0 0 0 0 0 0 0 0 0 0 0 0 0 0 0 0
10 10 12 14 17 18 16 14 12 11 12 10 8 7 8 8 9 7 5 4 2 0 0 0 0 0 0 0 0 0 0 0 0 0 0 0 0 0
11 11 12 13 15 17 16 14 13 13 14 14 11 9 8 9 9 7 7 6 5 2 1 1 1 1 0 0 0 0 0 0 0 0 0 0 0 0
13 12 12 11 10 10 9 10 12 14 15 15 14 11 11 12 11 9 7 7 7 6 5 4 4 5 4 2 0 0 0 0 0 0 0 0 0 0
14 13 12 10 8 6 4 5 7 9 12 13 14 13 13 14 14 12 9 8 9 9 9 8 9 10 9 5 2 0 0 0 0 0 0 0 0 0
13 13 12 10 9 8 6 4 4 5 7 9 11 12 12 14 15 14 12 11 11 11 10 9 10 12 10 7 4 1 0 0 0 0 0 0 0 0
13 13 12 11 10 10 10 7 7 7 5 5 8 10 10 11 13 14 13 11 10 11 10 8 7 9 8 7 4 1 0 0 0 0 0 0 0 0
12 12 11 11 10 10 11 10 10 9 6 4 5 6 6 6 9 12 12 9 6 7 9 8 6 5 5 5 4 2 1 0 0 0 0 0 0 0
10 10 8 7 7 7 10 11 10 9 9 8 7 6 5 4 7 11 12 9 4 5 9 9 6 5 4 4 4 4 4 2 1 0 0 0 0 0
9 7 5 4 2 3 6 9 9 9 11 13 13 11 11 10 11 13 14 11 7 7 10 9 7 6 6 5 5 7 8 6 5 4 2 1 0 0
7 5 3 1 0 0 2 5 5 6 10 13 14 14 16 17 16 15 14 12 10 9 10 9 7 7 7 7 8 9 10 10 10 9 6 3 1 0
4 2 1 0 0 0 1 1 2 4 7 9 10 12 15 16 15 15 14 11 10 9 9 8 7 7 7 7 8 9 10 10 11 11 9 7 5 3
1 1 1 0 0 0 0 1 2 4 6 7 8 10 12 12 12 12 11 9 8 8 8 7 7 6 5 5 6 6 6 6 7 8 8 8 9 9
1 1 1 1 1 1 1 2 4 5 4 5 7 8 8 8 8 9 9 7 6 6 6 6 6 5 4 4 4 3 2 2 3 4 5 5 7 9
1 1 2 3 3 3 3 4 5 5 4 4 5 6 5 5 6 7 7 7 6 4 4 5 5 4 3 3 3 2 1 0 1 3 3 2 2 3
2 2 3 5 6 5 4 4 4 4 3 3 4 5 4 4 5 6 6 6 6 5 4 4 4 3 3 3 2 1 0 0 2 3 3 1 1 0
3 3 4 5 6 5 4 3 3 3 4 4 3 4 4 5 5 5 4 4 5 5 4 3 3 3 2 1 1 0 0 0 1 2 2 2 1 1
3 3 3 3 4 4 3 3 3 3 3 3 3 3 4 5 5 4 3 3 4 4 3 3 3 1 1 0 0 0 0 0 0 1 1 1 1 0
2 1 1 2 3 3 3 3 1 1 1 2 2 2 3 4 4 4 4 4 3 3 3 3 2 1 0 0 0 0 0 0 0 0 0 0 0 0
1 0 1 2 3 3 3 2 1 0 0 1 1 1 2 3 4 5 5 5 4 3 3 2 1 0 0 0 0 0 0 0 0 0 0 0 0 0
Wind_Speed
4 4 4 3 3 3 3 4 4 4 3 2 3 2 3 2 3 4 4 6 7 6 6 6 7 7 7 7 8 7 7 7 7 7 7 7 8 8
3 3 3 3 3 3 3 4 4 5 4 2 2 2 2 3 4 4 4 6 8 8 7 7 7 7 7 7 7 7 7 7 7 7 7 7 7 8
4 4 4 4 3 3 4 4 4 4 5 4 3 2 3 5 3 4 5 6 5 9 8 8 7 7 7 7 7 7 7 7 7 7 7 7 7 7
5 5 5 4 4 5 4 4 4 4 5 5 4 3 4 5 4 6 5 5 5 8 10 9 9 8 8 8 8 7 7 7 7 7 7 7 8 8
6 6 6 5 6 4 5 5 4 5 5 6 5 3 4 4 5 5 6 5 6 6 10 11 10 10 9 9 9 9 8 8 7 8 8 8 8 8
5 5 6 6 6 6 5 5 5 5 5 6 6 5 4 4 5 5 5 4 5 5 4 6 8 11 11 10 10 9 9 8 8 8 8 8 8 8
5 5 5 5 4 5 5 5 5 5 5 6 5 5 4 4 4 4 5 4 4 4 4 5 5 6 7 10 10 9 9 9 9 9 8 8 8 8
5 5 5 5 5 5 5 5 6 6 6 6 5 5 5 5 4 5 5 5 5 3 4 5 4 5 5 5 7 9 10 10 9 9 9 8 9 9
5 5 5 3 5 5 6 7 7 7 7 7 7 6 6 5 5 6 5 6 6 4 4 6 4 5 5 4 8 9 10 9 9 9 9 9 9 10
5 5 5 5 4 5 6 5 5 5 6 7 6 6 6 5 6 7 6 7 7 5 4 6 5 5 5 4 8 10 9 10 10 10 10 10 10 10
5 4 4 4 2 4 6 6 6 5 5 5 6 6 5 6 6 6 5 6 6 5 3 5 5 5 5 6 6 11 10 11 11 11 11 11 10 10
3 4 2 3 3 4 6 6 7 6 5 5 7 8 8 8 8 7 6 6 6 6 2 4 5 5 5 5 4 5 7 10 11 12 12 12 10 8
3 3 2 2 3 4 6 6 6 7 7 7 6 5 6 6 6 6 6 7 7 6 3 4 5 5 6 6 5 5 5 5 7 8 11 12 12 11
4 3 1 1 3 5 5 4 6 7 6 5 5 5 5 5 4 5 6 6 6 7 5 5 6 5 6 7 6 5 5 5 6 6 6 8 11 14
3 2 2 3 4 5 5 5 6 5 5 5 5 5 5 4 4 4 5 6 7 7 5 5 6 6 7 7 7 6 6 5 5 6 6 6 6 7
3 2 3 4 5 5 4 5 5 4 4 5 5 5 4 4 4 4 4 4 5 4 4 5 6 7 7 8 7 6 6 5 5 5 6 6 6 6
3 3 3 3 3 3 3 4 4 4 4 4 5 5 4 4 3 3 3 4 4 4 4 3 4 5 7 7 7 6 6 6 5 5 6 7 7 7
3 2 3 3 3 4 4 4 3 3 4 4 4 4 5 5 4 3 4 4 4 4 4 4 3 4 5 4 4 6 6 5 5 5 6 7 7 5
3 3 3 3 3 4 4 4 4 3 3 4 4 4 4 5 4 4 4 4 4 4 4 4 4 4 6 6 4 4 5 5 6 6 6 6 7 6
2 2 3 3 3 4 4 4 4 4 3 3 4 4 4 4 4 4 4 5 5 5 5 4 4 4 5 7 7 6 5 6 6 6 6 6 6 5
3 3 3 3 3 3 3 4 4 4 4 4 3 3 4 4 4 4 4 4 5 5 5 5 4 4 6 6 6 5 4 3 4 6 7 7 6 6
4 4 4 4 4 4 4 4 4 4 4 3 3 3 3 3 4 4 5 5 4 5 6 5 4 4 5 5 6 6 6 4 4 5 7 7 6 6
3 3 3 3 3 4 4 4 5 4 4 4 4 4 4 4 4 4 5 5 5 5 5 5 5 4 5 5 5 6 7 6 5 5 4 5 7 8
Wind_Direction
241 232 240 246 245 246 244 255 265 268 265 233 221 200 216 219 175 222 223 184 200 210 221 226 227 224 223 223 225 227 230 233 233 233 236 241 243 239
248 258 255 250 250 246 243 243 253 266 276 280 260 241 240 240 191 236 234 187 199 207 217 222 223 221 223 225 226 225 227 229 227 230 236 243 247 243
244 238 240 256 255 247 240 241 242 249 257 264 261 243 235 253 238 245 239 236 206 194 208 218 222 224 225 226 227 226 225 225 227 230 235 241 245 244
247 246 243 236 235 255 256 250 249 250 255 263 261 249 237 241 243 251 252 247 243 185 197 211 218 221 224 225 224 221 219 220 224 228 234 237 240 243
244 245 246 243 242 243 249 253 250 245 245 255 257 256 252 248 248 247 248 250 252 203 193 202 210 217 221 222 221 218 216 217 221 225 232 236 239 241
240 243 246 245 243 244 242 247 255 258 249 252 254 251 248 243 248 253 248 235 250 243 220 215 206 210 216 216 216 214 214 216 221 227 232 235 236 236
244 242 243 252 268 264 265 255 252 253 257 258 258 257 256 254 254 257 261 257 242 246 249 236 218 224 214 209 211 211 215 218 222 226 230 234 234 235
254 253 241 230 235 236 256 274 277 262 263 266 263 266 267 268 274 268 270 268 264 235 256 255 244 245 237 226 193 199 211 215 218 222 226 230 234 237
257 259 260 247 238 241 226 226 237 246 251 261 265 264 266 270 274 269 268 273 274 271 258 260 246 250 252 224 181 194 205 213 218 222 226 229 233 236
261 261 262 264 265 265 256 246 244 239 238 242 258 265 269 275 263 263 267 262 258 250 250 264 259 258 262 246 185 192 204 214 221 224 228 231 234 237
257 260 263 266 300 291 264 255 254 251 230 222 239 249 262 262 263 266 262 262 265 257 236 263 271 268 263 252 204 192 206 216 221 225 228 230 233 239
249 247 244 274 291 277 258 257 257 259 260 235 228 233 237 233 228 244 260 263 271 269 244 259 267 272 268 250 240 221 219 217 219 225 226 225 222 235
265 259 250 190 239 257 261 262 269 273 264 257 249 241 238 238 233 235 247 257 263 268 268 258 268 266 267 271 262 248 245 240 229 229 223 218 217 226
278 277 287 202 233 247 254 270 274 270 266 263 261 258 256 256 256 255 247 253 261 267 271 266 268 268 270 270 272 260 254 251 247 245 240 214 220 223
294 331 310 281 260 244 237 254 261 262 269 273 274 272 272 278 278 266 250 245 250 250 250 257 264 270 267 268 272 272 270 259 250 250 246 240 237 230
272 253 238 248 255 275 265 244 251 268 278 279 281 284 287 281 274 278 275 268 263 259 247 247 256 266 266 269 270 268 267 267 264 261 258 255 247 239
297 265 259 256 255 261 267 272 275 268 260 270 278 284 285 286 287 289 282 276 270 273 280 271 262 258 259 263 266 269 276 276 272 268 261 259 251 243
301 295 296 286 281 280 277 277 277 286 295 293 288 286 285 282 280 276 270 270 272 275 280 287 285 281 275 264 256 267 273 276 279 272 265 263 263 256
277 294 303 305 301 299 295 293 297 301 302 294 291 289 288 288 288 287 284 281 280 283 284 283 276 270 275 280 280 248 274 279 277 272 269 271 274 273
290 308 312 311 314 313 311 308 305 301 296 292 291 293 291 292 291 287 285 291 290 291 290 283 277 276 275 282 287 285 262 270 278 279 281 282 279 278
329 333 331 329 330 326 323 321 321 317 315 307 300 293 291 288 287 290 291 294 288 291 292 293 301 284 278 273 271 278 289 269 269 277 282 278 277 273
338 339 339 336 332 331 330 326 324 325 317 308 307 305 302 299 295 293 292 291 287 288 290 292 286 278 277 279 284 289 293 296 274 251 259 267 275 278
346 341 339 336 332 332 329 326 324 325 325 327 328 324 319 317 313 303 292 288 288 293 296 294 292 286 284 281 281 285 288 289 287 284 274 243 235 248